When you browse on this site, cookies collect data to enhance your experience and personalize the content and advertising you see.
Visit our Privacy Policy to learn more. By continuing to use the site, you agree to this use of cookies and data.
  • In Lithuania
  • List of Countries
  • For 7 days
  • Water Temperature
  • Weather Map
  • Weather Widgets
  • user-avatar
    Login

    Hourly Weather El Guna

    Today, 22 November, Friday

    Time Temperature Precipitation Wind Pressure Humidity
    00:00 +15°C° 0 mm 0 mps 734 mmHg 55%
    01:00 +16°C° 0 mm 1 mps 733 mmHg 55%
    02:00 +16°C° 0 mm 1 mps 733 mmHg 55%
    03:00 +15°C° 0 mm 1 mps 733 mmHg 59%
    04:00 +15°C° 0 mm 1 mps 733 mmHg 62%
    05:00 +13°C° 0 mm 0 mps 734 mmHg 66%
    06:00 +15°C° 0 mm 0 mps 734 mmHg 55%
    07:00 +18°C° 0 mm 0 mps 734 mmHg 44%
    08:00 +20°C° 0 mm 0 mps 734 mmHg 33%
    09:00 +24°C° 0 mm 1 mps 734 mmHg 29%
    10:00 +25°C° 0 mm 1 mps 735 mmHg 25%
    11:00 +27°C° 0 mm 1 mps 735 mmHg 21%
    12:00 +27°C° 0 mm 2 mps 734 mmHg 21%
    13:00 +28°C° 0 mm 2 mps 733 mmHg 20%
    14:00 +28°C° 0 mm 3 mps 733 mmHg 20%
    15:00 +26°C° 0 mm 2 mps 733 mmHg 27%
    16:00 +23°C° 0 mm 2 mps 733 mmHg 35%
    17:00 +21°C° 0 mm 1 mps 733 mmHg 43%
    18:00 +19°C° 0 mm 2 mps 733 mmHg 46%
    19:00 +18°C° 0 mm 2 mps 733 mmHg 49%
    20:00 +18°C° 0 mm 2 mps 733 mmHg 52%
    21:00 +17°C° 0 mm 2 mps 734 mmHg 46%
    22:00 +17°C° 0 mm 2 mps 734 mmHg 41%
    23:00 +17°C° 0 mm 2 mps 734 mmHg 35%

    Tomorrow, 23 November, Saturday

    Time Temperature Precipitation Wind Pressure Humidity
    00:00 +17°C° 0 mm 2 mps 734 mmHg 34%
    01:00 +16°C° 0 mm 2 mps 733 mmHg 33%
    02:00 +16°C° 0 mm 2 mps 733 mmHg 32%
    03:00 +15°C° 0 mm 1 mps 733 mmHg 36%
    04:00 +14°C° 0 mm 1 mps 733 mmHg 39%
    05:00 +14°C° 0 mm 1 mps 733 mmHg 43%
    06:00 +16°C° 0 mm 1 mps 734 mmHg 36%
    07:00 +19°C° 0 mm 1 mps 734 mmHg 29%
    08:00 +22°C° 0 mm 1 mps 735 mmHg 23%
    09:00 +23°C° 0 mm 2 mps 735 mmHg 21%
    10:00 +25°C° 0 mm 3 mps 735 mmHg 19%
    11:00 +26°C° 0 mm 4 mps 735 mmHg 17%
    12:00 +27°C° 0 mm 4 mps 734 mmHg 17%
    13:00 +27°C° 0 mm 5 mps 733 mmHg 17%
    14:00 +28°C° 0 mm 5 mps 733 mmHg 17%
    15:00 +25°C° 0 mm 4 mps 733 mmHg 21%
    16:00 +22°C° 0 mm 4 mps 732 mmHg 26%
    17:00 +20°C° 0 mm 3 mps 732 mmHg 30%
    18:00 +19°C° 0 mm 3 mps 733 mmHg 32%
    19:00 +17°C° 0 mm 2 mps 733 mmHg 35%
    20:00 +16°C° 0 mm 2 mps 733 mmHg 37%
    21:00 +15°C° 0 mm 1 mps 733 mmHg 36%
    22:00 +15°C° 0 mm 1 mps 733 mmHg 35%
    23:00 +15°C° 0 mm 1 mps 733 mmHg 34%

    Day after tomorrow, 24 November, Sunday

    Time Temperature Precipitation Wind Pressure Humidity
    00:00 +14°C° 0 mm 1 mps 733 mmHg 37%
    01:00 +14°C° 0 mm 1 mps 733 mmHg 41%
    02:00 +14°C° 0 mm 1 mps 732 mmHg 44%
    03:00 +13°C° 0 mm 1 mps 733 mmHg 46%
    04:00 +13°C° 0 mm 1 mps 733 mmHg 48%
    05:00 +13°C° 0 mm 1 mps 733 mmHg 51%
    06:00 +15°C° 0 mm 1 mps 733 mmHg 43%
    07:00 +19°C° 0 mm 1 mps 734 mmHg 35%
    08:00 +21°C° 0 mm 1 mps 734 mmHg 28%
    09:00 +23°C° 0 mm 1 mps 734 mmHg 24%
    10:00 +24°C° 0 mm 2 mps 734 mmHg 20%
    11:00 +26°C° 0 mm 2 mps 734 mmHg 17%
    12:00 +27°C° 0 mm 2 mps 733 mmHg 16%
    13:00 +27°C° 0 mm 3 mps 733 mmHg 16%
    14:00 +28°C° 0 mm 3 mps 732 mmHg 16%
    15:00 +26°C° 0 mm 3 mps 732 mmHg 22%
    16:00 +22°C° 0 mm 3 mps 733 mmHg 28%
    17:00 +20°C° 0 mm 3 mps 733 mmHg 34%
    18:00 +19°C° 0 mm 2 mps 733 mmHg 37%
    19:00 +17°C° 0 mm 2 mps 733 mmHg 41%
    20:00 +16°C° 0 mm 1 mps 733 mmHg 44%
    21:00 +16°C° 0 mm 1 mps 733 mmHg 42%
    22:00 +16°C° 0 mm 1 mps 733 mmHg 39%
    23:00 +15°C° 0 mm 1 mps 733 mmHg 37%

    25 November, Monday

    Time Temperature Precipitation Wind Pressure Humidity
    00:00 +15°C° 0 mm 1 mps 732 mmHg 36%
    01:00 +14°C° 0 mm 0 mps 732 mmHg 35%
    02:00 +13°C° 0 mm 0 mps 732 mmHg 34%
    03:00 +14°C° 0 mm 0 mps 732 mmHg 32%
    04:00 +14°C° 0 mm 0 mps 732 mmHg 31%
    05:00 +14°C° 0 mm 0 mps 732 mmHg 30%
    06:00 +18°C° 0 mm 1 mps 733 mmHg 26%
    07:00 +21°C° 0 mm 1 mps 734 mmHg 22%
    08:00 +24°C° 0 mm 1 mps 734 mmHg 17%
    09:00 +25°C° 0 mm 2 mps 734 mmHg 16%
    10:00 +27°C° 0 mm 2 mps 734 mmHg 15%
    11:00 +29°C° 0 mm 2 mps 734 mmHg 14%
    12:00 +29°C° 0 mm 3 mps 734 mmHg 15%
    13:00 +29°C° 0 mm 3 mps 733 mmHg 17%
    14:00 +30°C° 0 mm 3 mps 733 mmHg 18%
    15:00 +27°C° 0 mm 3 mps 733 mmHg 24%
    16:00 +25°C° 0 mm 2 mps 732 mmHg 30%
    17:00 +21°C° 0 mm 2 mps 732 mmHg 35%
    18:00 +21°C° 0 mm 2 mps 732 mmHg 36%
    19:00 +20°C° 0 mm 2 mps 733 mmHg 36%
    20:00 +20°C° 0 mm 2 mps 733 mmHg 36%
    21:00 +20°C° 0 mm 2 mps 733 mmHg 36%
    22:00 +20°C° 0 mm 2 mps 733 mmHg 37%
    23:00 +19°C° 0 mm 2 mps 733 mmHg 37%

    26 November, Tuesday

    Time Temperature Precipitation Wind Pressure Humidity
    00:00 +19°C° 0 mm 2 mps 732 mmHg 37%
    01:00 +20°C° 0 mm 1 mps 732 mmHg 38%
    02:00 +20°C° 0 mm 1 mps 732 mmHg 38%
    03:00 +20°C° 0 mm 1 mps 732 mmHg 38%
    04:00 +20°C° 0 mm 1 mps 732 mmHg 39%
    05:00 +19°C° 0 mm 2 mps 732 mmHg 39%
    06:00 +21°C° 0 mm 2 mps 732 mmHg 34%
    07:00 +24°C° 0 mm 2 mps 733 mmHg 28%
    08:00 +26°C° 0 mm 2 mps 733 mmHg 23%
    09:00 +28°C° 0 mm 3 mps 733 mmHg 21%
    10:00 +30°C° 0 mm 4 mps 733 mmHg 18%
    11:00 +33°C° 0 mm 5 mps 733 mmHg 16%
    12:00 +33°C° 0 mm 5 mps 733 mmHg 16%
    13:00 +33°C° 0 mm 5 mps 732 mmHg 17%
    14:00 +33°C° 0 mm 5 mps 732 mmHg 18%
    15:00 +30°C° 0 mm 4 mps 732 mmHg 23%
    16:00 +27°C° 0 mm 3 mps 732 mmHg 29%
    17:00 +24°C° 0 mm 2 mps 732 mmHg 34%
    18:00 +23°C° 0 mm 2 mps 732 mmHg 32%
    19:00 +23°C° 0 mm 2 mps 732 mmHg 31%
    20:00 +21°C° 0 mm 3 mps 733 mmHg 29%
    21:00 +20°C° 0 mm 3 mps 733 mmHg 31%
    22:00 +19°C° 0 mm 3 mps 733 mmHg 34%
    23:00 +19°C° 0 mm 3 mps 733 mmHg 37%

    27 November, Wednesday

    Time Temperature Precipitation Wind Pressure Humidity
    00:00 +18°C° 0 mm 3 mps 733 mmHg 37%
    01:00 +18°C° 0 mm 3 mps 733 mmHg 38%
    02:00 +18°C° 0 mm 3 mps 733 mmHg 39%
    03:00 +17°C° 0 mm 3 mps 733 mmHg 38%
    04:00 +17°C° 0 mm 3 mps 732 mmHg 37%
    05:00 +16°C° 0 mm 3 mps 732 mmHg 36%
    06:00 +17°C° 0 mm 3 mps 733 mmHg 31%
    07:00 +19°C° 0 mm 3 mps 733 mmHg 26%
    08:00 +20°C° 0 mm 3 mps 734 mmHg 21%
    09:00 +21°C° 0 mm 3 mps 734 mmHg 18%
    10:00 +23°C° 0 mm 4 mps 734 mmHg 16%
    11:00 +25°C° 0 mm 4 mps 734 mmHg 14%
    12:00 +26°C° 0 mm 4 mps 734 mmHg 16%
    13:00 +26°C° 0 mm 5 mps 733 mmHg 17%
    14:00 +27°C° 0 mm 6 mps 733 mmHg 19%
    15:00 +25°C° 0 mm 5 mps 733 mmHg 24%
    16:00 +22°C° 0 mm 4 mps 733 mmHg 28%
    17:00 +20°C° 0 mm 4 mps 733 mmHg 33%
    18:00 +19°C° 0 mm 3 mps 733 mmHg 36%
    19:00 +18°C° 0 mm 3 mps 733 mmHg 40%
    20:00 +17°C° 0 mm 3 mps 734 mmHg 43%
    21:00 +17°C° 0 mm 3 mps 734 mmHg 46%
    22:00 +16°C° 0 mm 3 mps 734 mmHg 50%
    23:00 +16°C° 0 mm 3 mps 734 mmHg 53%
    Show more